Retour au catalogue

CZ-6A DEB

ActifPO
NORAD 61305·DEBRIS·🇨🇳 China

Lancé Aug 6, 2024 depuis Taiyuan Satellite Launch Center

Loading…

Prochains Passages (prochaines 24 heures)

TLE

FraisSource: Space-Track

Époque: Sep 14, 2026, 10:32 UTC

1 61305U 24140TS  26257.43892983  .00003566  00000-0  64136-3 0  9997
2 61305  88.9791 257.2282 0086855 287.4349  71.7384 14.63994602108986

Suivez CZ-6A DEB en temps réel avec AllMySat

Download on the App Store